Voltar ao catálogo

ARIANE 1 DEB

AtivoSSO
NORAD 17117·DEBRIS·🇫🇷 France

Lançado Feb 22, 1986 de Guiana Space Centre

Loading…

Próximas Passagens (próximas 24 horas)

TLE

AtualizadoSource: Space-Track

Época: Sep 14, 2026, 12:43 UTC

1 17117U 86019M   26257.53032671  .00003797  00000-0  71643-3 0  9990
2 17117  98.1893 279.0625 0062664  28.5818 132.4559 14.63811471 72806

Acompanhe ARIANE 1 DEB em tempo real com AllMySat

Download on the App Store